This demonstration page uses our WeatherBlox Daily Observations layout. Learn more.

Left ArrowRight Arrow

Hourly Observations for May 2, 2021

Temp ( °F °C ) Dew Point ( °F °C ) Humidity (%) Winds ( mph kmh ) Pressure ( in mb ) Visibility ( mi km ) Precip ( " mm )
12:53 am 00:53 Clear 62 16.7 43 6.1 50 50 SW 5 7 29.90 1012 10 16 N/A
1:53 am 01:53 Clear 62 16.7 44 6.7 52 52 VRB 3 6 29.88 1012 10 16 N/A
2:53 am 02:53 Clear 60 15.6 45 7.2 58 58 N N/A 29.87 1012 10 16 N/A
3:53 am 03:53 Clear 55 12.8 46 7.8 72 72 NW 3 6 29.88 1012 10 16 N/A
4:53 am 04:53 Clear 51 10.6 48 8.9 89 89 N N/A 29.88 1012 10 16 N/A
5:53 am 05:53 Clear 50 10 46 7.8 86 86 N N/A 29.88 1012 10 16 N/A
6:53 am 06:53 Sunny 51 10.6 46 7.8 83 83 N N/A 29.88 1012 10 16 N/A
7:53 am 07:53 Sunny 59 15 52 11.1 78 78 N N/A 29.89 1012 10 16 N/A
8:53 am 08:53 Sunny 63 17.2 49 9.4 60 60 N N/A 29.89 1012 10 16 N/A
9:53 am 09:53 Sunny 69 20.6 50 10 51 51 WSW 5 7 29.88 1012 10 16 N/A
10:53 am 10:53 Sunny 72 22.2 49 9.4 44 44 WSW 9 15 29.87 1011 10 16 N/A
11:53 am 11:53 Sunny 75 23.9 50 10 41 41 VRB 3 6 29.85 1011 10 16 N/A
12:53 pm 12:53 Sunny 79 26.1 51 10.6 38 38 VRB 7 11 29.84 1010 10 16 N/A
1:53 pm 13:53 Sunny 79 26.1 49 9.4 35 35 SW 10 17 29.82 1010 10 16 N/A
2:53 pm 14:53 Sunny 78 25.6 49 9.4 36 36 SW 8 13 29.81 1010 10 16 N/A
3:53 pm 15:53 Sunny 77 25 49 9.4 37 37 SSW 7 11 29.80 1009 10 16 N/A
4:53 pm 16:53 Sunny 76 24.4 49 9.4 39 39 SW 8 13 29.80 1009 10 16 N/A
5:53 pm 17:53 Partly Cloudy 74 23.3 46 7.8 37 37 SW 12 19 29.80 1009 10 16 N/A
6:53 pm 18:53 Mostly Cloudy 71 21.7 49 9.4 46 46 SSW 8 13 29.82 1010 10 16 N/A
7:53 pm 19:53 Cloudy with Light Rain 65 18.3 54 12.2 68 68 SSW 3 6 29.82 1010 10 16 0.00 0.00
8:53 pm 20:53 Cloudy with Light Rain 64 17.8 54 12.2 70 70 S 5 7 29.83 1010 10 16 0.00 0.00
9:53 pm 21:53 Cloudy with Light Rain 60 15.6 57 13.9 90 90 N N/A 29.83 1010 10 16 0.01 0.25
10:53 pm 22:53 Cloudy 61 16.1 54 12.2 78 78 VRB 3 6 29.82 1010 10 16 0.01 0.25
11:53 pm 23:53 Cloudy with Light Rain 60 15.6 54 12.2 80 80 N N/A 29.80 1009 10 16 0.00 0.00

Powered by AerisWeather